CZ-6A DEB, 61109

Orbit data source: Space-Track

CZ-6A DEB, 61109 is space debris in LEO originally from a launch on Tue, 06 Aug 2024 UTC launched from the Taiyaun Space Center, China (TSC). Debris objects in space refer to the collection of defunct objects orbiting the Earth. Examples of debris include non-operational satellites, rocket bodies, and fragments generated from explosions, collisions, or faulty payload assembly.

Loading next visibility...
Identifier
61109, 2024-140PB
Orbit
LEO
Country
Flag of CNCN / PRC
Related business
Manufacturer
SAST
Mission
Spacecraft
Bus & Motor
Unknown
Mass
Unknown
Launch date (UTC)
2024-08-06 (2 years ago)
Launch vehicle
Unknown
Launch site
Taiyaun Space Center, China (TSC)
Object type
Payload
Rocket body
Debris
Shape & HBR
Unknown shape, 0.2 m
Radar Cross Section
Medium (>0.1 m² and <1 m²)

Expand to show TLE details & history
Last TLE update: 15 hours ago

TLE from 15 hours ago
0 CZ-6A DEB
1 61109U 24140PB  26171.30104765  .00000249  00000-0  10843-3 0  9995
2 61109  89.0809 280.6185 0043521 195.7490 164.2350 14.20542835 92885
Epoch: 2026-06-20T07:13Z
TLE epoch observation values (Epoch: 2026-06-20T07:13:30.516Z)
Latitude
-0.00006°
Longitude
-96.27629°
Altitude
856.751 km
Speed
7.409 km/s
True Right ascension
18h 42m 28s
True Declination
0° 00' 00"
Sunlit
Object was in full shadow at epoch
Visualization orbit readout
Latitude
Unknown
Longitude
Unknown
Altitude
Unknown
Speed
Unknown
Apparent Right ascension
Unknown
Apparent Declination
Unknown
Sunlit
N/A
Visualization observer readout
Local Sidereal Time
08:43:12
Azimuth
Unknown
Elevation
Unknown
Doppler factor
Unknown
Orbital elements
Apogee altitude
851.797 km
Perigee altitude
789.138 km
Semi-major axis
7,198.604 km
Eccentricity
0.00435
Inclination
89.0809°
RAAN
280.6185°
Arg. of periapsis
195.749°
True anomaly
164.36979°
Mean anomaly
164.235°
Eccentric anomaly
164.30247°
Mean motion
3.55362 °/min
Orbital period
101.31 mins
BSTAR
0.00010843
Loading maneuver chart data...
Computing Atmospheric mass density...
Loading historical data...
Loading historical data...
Loading historical data...
Loading historical data...
Loading historical data...
Loading historical data...
Loading historical data...

Documentation

Showing up to 5 results
|